Location: McFarlands Corners
(41.4117°N, 81.3382°W)
Time: 19:34:50
(UTC+00:00)

Transit 4A - Pass Details

Date: 23 February 2026
Orbit: 864 x 977 km, 66.8° (Epoch: 10 March)

Event Time Altitude Azimuth Distance (km) Brightness Sun altitude
Rises 06:16:14 0° 159° (SSE) 3,440 - -57.3°
Reaches altitude 10° 06:19:40 10° 139° (SE) 2,522 - -57.1°
Maximum altitude 06:23:03 16° 103° (ESE) 2,147 - -56.9°
Drops below altitude 10° 06:26:28 10° 67° (ENE) 2,568 - -56.7°
Sets 06:29:59 0° 47° (NE) 3,537 - -56.4°
Exits shadow 06:30:02 - 47° (NE) 3,555 11.4 -56.4°
